Skip Page Navigation
NASA JPL Caltech
NASA Logo - Jet Propulsion Laboratory + View the NASA Portal
+ Center for Near-Earth Object Studies
JPL Home Earth Solar System Stars & Galaxies Technology
JPL Solar System Dynamics
BODIES ORBITS EPHEMERIDES TOOLS PHYSICAL DATA DISCOVERY FAQ SITE MAP
IMPORTANT: The SSD Announcement email list is now available. Major changes are coming in the near future, including possible hostname and/or URL changes. To be notified of such changes, subscribe to this email list.

Please visit this page for more details.


JPL Small-Body Database Browser
Search: [ help ]  
146067 (2000 GQ35)
Classification: Main-belt Asteroid          SPK-ID: 2146067
Ephemeris | Orbit Diagram | Orbital Elements | Mission Design | Physical Parameters | Discovery Circumstances ]

[ show orbit diagram ]
Orbital Elements at Epoch 2458600.5 (2019-Apr-27.0) TDB
Reference: JPL 11 (heliocentric ecliptic J2000)
 Element Value Uncertainty (1-sigma)   Units 
e .1367522644968354 6.2145e-08  
a 2.399390893053175 1.758e-08 au
q 2.071268755015069 1.4357e-07 au
i 1.554168226194005 6.2006e-06 deg
node 329.5633760950547 0.00021189 deg
peri 225.64939458 0.0002128 deg
M 49.67744239162078 2.0046e-05 deg
tp 2458413.170288742839
(2018-Oct-21.67028874)
7.4978e-05 TDB
period 1357.531563741556
3.72
1.492e-05
4.085e-08
d
yr
n .2651872041986171 2.9146e-09 deg/d
Q 2.727513031091281 1.9985e-08 au
  Orbit Determination Parameters
   # obs. used (total)      411  
   data-arc span      6501 days (17.80 yr)  
   first obs. used      2000-04-05  
   last obs. used      2018-01-22  
   planetary ephem.      DE431  
   SB-pert. ephem.      SB431-N16  
   condition code      0  
   norm. resid. RMS      .55423  
   source      ORB  
   producer      Otto Matic  
   solution date      2018-Feb-06 07:28:13  

Additional Information
 Earth MOID = 1.07079 au 
 Jupiter MOID = 2.23381 au 
 T_jup = 3.513 
[ hide covariance matrix ]
Orbital Elements at Epoch 2455986.5 (2012-Feb-29.0) TDB
Reference: JPL 11 (heliocentric ecliptic J2000)
 Element Value Uncertainty (1-sigma)   Units 
e .1373300805839799 6.2116e-08  
q 2.068873487565944 1.4348e-07 au
tp 2455699.438683801264
(2011-May-17.93868380)
7.1827e-05 TDB
node 329.6619087855738 0.00021198 deg
peri 225.58008094948 0.00021288 deg
i 1.554360440127172 6.1996e-06 deg
  Orbit Determination Parameters
   # obs. used (total)      411  
   data-arc span      6501 days (17.80 yr)  
   first obs. used      2000-04-05  
   last obs. used      2018-01-22  
   planetary ephem.      DE431  
   SB-pert. ephem.      SB431-N16  
   condition code      0  
   norm. resid. RMS      .55423  
   source      ORB  
   producer      Otto Matic  
   solution date      2018-Feb-06 07:28:13  

Additional Information
 Jupiter MOID = 2.23381 au 
 T_jup = 3.513 
Orbit Covariance (6×6)
  e q tp node peri i
e 3.858422801271221E-15 -8.870850367708453E-15 -3.554513197451287E-13 2.79381282986303E-15 -6.663298773422677E-14 -1.840276248530386E-15
q -8.870850367708453E-15 2.058528567092283E-14 7.235867093136953E-13 -5.820494857871757E-15 1.362151903808663E-13 4.345025005743758E-15
tp -3.554513197451287E-13 7.235867093136953E-13 5.159182172330374E-9 1.736569656372705E-11 1.432088047077508E-9 6.412306171485389E-14
node 2.79381282986303E-15 -5.820494857871757E-15 1.736569656372705E-11 4.493712571401365E-8 -4.491509592605121E-8 3.026615553513707E-10
peri -6.663298773422677E-14 1.362151903808663E-13 1.432088047077508E-9 -4.491509592605121E-8 4.531884803740751E-8 -3.025481158945143E-10
i -1.840276248530386E-15 4.345025005743758E-15 6.412306171485389E-14 3.026615553513707E-10 -3.025481158945143E-10 3.843543196017744E-11

Ephemeris | Orbit Diagram | Orbital Elements | Mission Design | Physical Parameters | Discovery Circumstances ]

Physical Parameter Table
Parameter Symbol Value Units Sigma Reference Notes
absolute magnitude H 16.5   n/a MPO396199  

146067 (2000 GQ35)          Discovered 2000-Apr-05 by LINEAR at Socorro
Reference: 20070106/Numbers.arcLast Updated: 2007-01-09

Alternate Designations
 2000 GQ35 = 2001 SS189 
Ephemeris | Orbit Diagram | Orbital Elements | Mission Design | Physical Parameters | Discovery Circumstances ]
ABOUT SSD CREDITS/AWARDS PRIVACY/COPYRIGHT GLOSSARY LINKS
FirstGov 2020-Jan-18 17:39 UT
(server date/time)  
NASA Home Page
Site Manager:   Ryan S. Park
Webmaster  Alan B. Chamberlin